Regional Weather Roundup
Issued by NWS Goodland, KS

Home | Current Version | Previous Version | Graphics & Text | Print | Product List | Glossary On
Versions: 1 2 3 4 5 6 7 8 9 10 11 12 13 14 15 16 17 18 19 20 21 22 23 24 25 26 27 28 29 30 31 32 33 34 35 36 37 38 39 40 41 42 43 44 45 46 47 48 49 50
000
ASUS43 KGLD 290559
RWRGLD

GOODLAND FORECAST AREA HOURLY WEATHER ROUNDUP
NATIONAL WEATHER SERVICE GOODLAND KS
1200 AM MDT SUN MAR 29 2015

...OFFICIAL OBSERVATIONS...

CITY           SKY/WX    TMP DP  RH WIND       PRES   REMARKS
GOODLAND KS    PTCLDY    59  34  39 S20       29.86S
HILL CITY KS   CLEAR     59  42  53 S13G20    29.81F
IMPERIAL NEB   CLOUDY    74  26  16 W18G25    29.83R
MCCOOK NEB     PTCLDY    64  39  39 SW14G22   29.84R
AKRON CO       CLOUDY    58  30  34 W12       29.93R
BURLINGTON CO  PTCLDY    57  28  33 S14       29.90F
LIMON CO       CLEAR     54  28  36 NW10      30.01R
$$

...UNOFFICIAL OBSERVATIONS...

CITY           SKY/WX    TMP DP  RH WIND       PRES   REMARKS
COLBY KS       CLEAR     61  43  51 S20G29    29.84F
GOVE KS          N/A     60  32  34 MISG        N/A
LENORA KS        N/A     58  32  37 MISG        N/A
NORTON KS      CLEAR     55  37  50 S10       29.81R
SHARON SPRINGS   N/A     56  39  53 S10         N/A
TRIBUNE KS     PTCLDY    55  45  67 SE12      29.89F
KIT CARSON CO    N/A     46  28  49 MISG        N/A
YUMA CO          N/A     59  29  32 W9          N/A
$$


USA.gov is the U.S. government's official web portal to all federal, state and local government web resources and services.